Theta_e
321 321 322 323 323 321 327 332 332 333 337 343 344 344 345 345 346 349 351 344 338 336 342 344 343 342 341 342 342 339 338 335 325 323 322 321 320 320 322 324 325 326 325 324 324 323 323 325 328
321 321 322 323 321 323 324 327 330 330 343 344 344 345 344 346 341 340 349 350 339 333 339 343 342 341 340 341 342 340 339 334 327 322 322 322 323 322 323 325 326 326 324 323 323 323 323 324 328
320 321 322 318 318 322 324 326 329 329 332 344 344 343 343 344 335 337 347 352 343 331 338 342 342 341 339 341 342 341 339 335 328 323 322 323 325 324 326 326 324 323 322 323 323 323 323 325 327
321 322 322 319 321 322 324 325 326 328 329 345 344 348 342 341 340 343 351 350 334 328 335 340 341 340 337 339 341 341 339 335 329 323 323 323 326 327 326 324 323 322 322 323 323 323 324 328 330
321 321 318 319 321 322 324 326 328 328 329 334 344 342 344 342 342 347 351 350 346 329 333 338 337 336 336 337 340 341 339 336 331 323 323 322 323 325 324 323 323 322 322 323 323 323 323 327 329
321 319 316 318 320 322 322 325 326 328 330 341 346 344 342 342 340 341 352 351 341 332 332 338 339 335 334 336 339 341 338 336 333 325 322 323 322 323 323 323 323 322 322 323 324 323 323 324 325
317 315 317 317 320 320 322 325 327 330 332 340 344 342 343 342 346 351 353 350 336 328 332 338 337 335 333 334 338 340 338 336 333 327 322 324 323 323 323 323 323 323 322 322 323 323 323 323 323
320 314 319 318 321 321 322 325 329 333 333 333 347 349 346 340 352 351 353 346 333 328 335 336 335 334 333 335 337 338 336 335 332 327 322 323 324 323 323 323 323 323 322 321 321 322 322 322 323
319 315 317 318 320 321 323 324 330 330 331 328 344 350 348 340 351 354 351 347 334 331 334 335 334 333 333 334 335 334 333 332 330 327 322 322 323 323 323 323 323 324 323 322 321 321 321 321 321
314 314 317 317 319 320 322 327 329 331 330 328 328 345 347 350 351 351 350 348 342 334 339 336 334 331 331 333 334 333 332 331 328 324 321 320 321 322 323 323 323 324 324 323 322 322 321 321 320
314 315 316 319 321 322 322 327 329 330 328 327 328 330 347 349 349 349 349 347 348 346 336 337 334 332 331 331 332 331 330 326 324 322 320 320 321 322 323 323 323 324 324 323 322 323 323 323 324
315 315 316 317 319 320 322 325 328 329 326 327 327 327 335 347 347 344 349 351 350 349 340 335 333 332 331 330 328 326 324 322 322 321 321 321 321 322 322 322 323 328 331 339 335 324 331 327 332
311 313 316 317 318 318 321 326 328 328 328 326 326 327 333 334 344 346 343 348 349 348 344 338 334 332 332 331 329 326 322 321 321 322 322 321 321 322 323 327 333 330 339 343 344 343 343 341 340
313 314 315 317 318 317 321 325 327 326 328 327 325 326 328 332 333 343 342 347 346 347 346 341 338 334 332 332 331 327 323 322 321 321 322 322 322 323 326 331 334 338 339 345 344 344 343 345 344
313 313 312 314 316 319 326 325 325 327 327 327 326 326 327 327 328 329 329 336 339 346 343 346 345 343 335 335 335 336 334 330 327 327 326 325 324 323 325 333 340 345 343 344 345 345 345 346 345
310 311 313 314 314 317 323 320 324 326 326 326 326 327 329 328 328 326 331 337 338 341 342 340 340 345 343 343 345 345 346 335 345 346 346 348 347 339 331 334 341 348 349 346 346 345 344 346 342
309 311 311 314 313 322 323 322 324 326 326 326 326 326 326 328 329 326 333 340 343 344 340 338 341 344 345 347 351 347 348 347 347 348 348 349 349 349 349 348 344 350 349 348 347 345 344 340 335
311 311 312 313 315 321 324 325 325 326 326 326 326 326 326 328 329 327 325 335 340 342 336 338 334 341 344 346 347 350 350 349 347 350 349 349 349 349 350 349 348 346 345 349 348 343 343 340 333
313 312 312 312 313 325 324 325 324 324 326 325 326 327 326 328 328 328 325 329 339 339 334 335 340 335 333 337 339 342 350 349 350 350 350 350 350 348 349 346 344 346 345 340 345 344 342 338 338
311 312 312 313 321 322 323 324 324 323 323 325 326 328 328 329 328 327 327 325 334 339 337 336 338 338 333 340 344 343 345 350 346 348 349 350 350 350 349 349 348 345 344 342 341 342 338 337 335
311 311 313 313 324 324 324 325 324 323 324 325 324 326 328 328 329 328 326 324 331 332 333 335 334 334 334 334 339 334 339 346 346 345 348 351 351 347 346 344 344 345 342 342 341 340 336 339 338
311 312 313 316 324 327 326 327 324 323 323 322 323 324 327 327 328 329 326 324 323 327 332 336 336 336 335 335 338 333 343 347 340 342 347 349 350 349 343 345 345 346 341 340 340 338 338 340 336
312 312 313 315 319 320 324 322 322 323 323 322 322 323 325 327 328 327 327 324 324 326 331 334 340 344 340 342 343 347 347 342 342 344 346 351 349 348 346 346 346 344 344 343 339 339 331 334 339
313 313 313 317 316 318 319 324 320 322 324 322 322 325 326 326 327 326 327 325 328 327 328 331 336 338 339 337 340 342 345 343 347 346 346 344 341 349 343 343 343 345 345 343 341 337 336 340 340
312 310 310 314 319 321 319 320 320 319 320 321 321 325 326 326 325 327 325 325 332 327 330 330 334 335 334 334 340 342 344 345 346 343 342 346 342 344 344 343 340 339 334 336 336 338 337 334 330
312 310 310 319 320 317 320 321 320 318 320 320 322 323 324 324 323 327 330 333 332 333 335 335 336 337 340 339 342 345 345 344 345 347 349 345 343 341 342 342 340 339 336 338 339 338 334 328 322
310 310 311 313 319 319 317 317 319 319 318 318 317 320 322 324 326 333 334 332 333 334 334 338 342 344 345 345 344 345 345 346 343 342 342 342 341 340 337 337 338 336 333 335 331 328 322 319 319
310 310 314 317 319 323 323 325 320 325 319 317 316 318 326 329 333 334 334 333 334 337 339 339 339 339 338 339 339 340 340 340 338 338 338 336 335 334 335 335 335 334 334 333 331 325 323 322 321
310 310 315 317 318 323 324 323 323 323 323 318 319 324 333 334 335 335 336 336 335 335 335 334 335 334 334 333 333 333 331 330 330 330 331 332 333 332 330 332 333 334 332 331 331 331 330 330 330
311 311 316 318 323 325 324 323 323 323 321 322 324 330 332 331 333 332 331 331 330 329 329 328 326 327 325 325 326 326 325 325 324 323 322 321 321 322 324 325 324 326 328 329 328 329 328 329 329
Wind_Speed
7 7 9 8 3 4 4 6 5 6 7 2 18 10 14 11 4 4 9 35 31 32 33 31 28 27 26 25 22 20 18 16 18 20 21 22 22 22 20 17 15 13 12 12 12 13 14 15 15
6 6 6 1 4 1 6 6 9 4 8 25 21 13 14 10 18 10 24 27 33 30 32 32 29 28 27 26 24 22 20 17 17 19 20 21 20 20 18 16 14 12 11 10 11 11 13 14 15
5 6 2 4 4 6 6 4 4 9 11 7 11 12 13 9 28 17 23 28 34 30 32 31 30 28 27 26 26 24 22 19 18 19 20 20 19 19 17 15 13 11 10 10 10 10 11 12 13
3 2 3 2 7 7 9 2 13 15 25 3 14 3 10 28 24 21 28 28 31 30 31 31 29 28 27 27 26 25 23 20 19 19 20 20 19 17 16 13 11 10 9 9 9 9 9 10 11
6 3 1 3 8 6 11 5 17 13 15 10 20 9 6 29 28 26 34 31 33 32 33 34 31 29 28 28 28 26 23 22 20 20 21 21 19 17 14 12 10 9 9 8 8 7 8 8 9
4 2 2 6 10 6 9 18 18 16 26 11 5 12 8 26 23 29 34 33 31 28 36 35 33 31 30 29 28 26 24 21 19 19 21 21 19 17 14 12 10 8 7 7 6 6 6 6 7
6 4 6 6 7 7 7 11 8 8 11 6 7 8 8 24 20 26 28 27 29 32 36 36 34 31 30 29 28 26 24 21 19 17 18 19 18 17 14 12 9 7 6 5 5 5 4 4 5
9 3 4 6 8 6 9 10 17 9 4 6 7 6 7 22 21 25 25 27 30 32 35 36 34 32 31 31 29 27 24 22 19 18 18 18 18 17 15 12 9 7 6 5 4 4 4 3 3
14 3 7 7 6 2 20 6 13 25 7 13 7 7 8 35 29 31 31 26 30 32 36 36 36 34 32 31 30 29 26 24 21 20 19 19 19 18 15 12 10 7 6 5 5 4 4 3 3
7 6 8 5 6 2 9 9 11 7 5 6 23 14 8 28 33 33 30 28 29 32 36 35 34 33 32 32 31 30 28 25 23 21 19 18 18 17 15 13 10 8 6 6 5 5 5 4 4
5 8 3 4 20 21 10 12 15 4 2 9 16 19 7 8 19 33 27 34 31 26 31 33 31 29 29 31 31 29 27 25 23 21 20 19 19 18 16 14 12 9 7 6 6 6 6 5 5
5 6 10 7 18 10 5 15 7 6 6 11 15 15 3 9 3 16 4 13 26 29 32 31 29 28 29 29 28 27 25 23 22 22 20 20 20 19 17 15 12 9 5 1 4 4 4 5 6
8 4 6 15 25 23 12 6 4 9 5 9 12 15 15 14 9 14 7 3 10 17 21 28 27 28 29 28 26 24 23 22 21 20 20 19 19 19 17 15 11 9 7 3 1 1 3 3 5
6 21 18 25 26 18 10 7 7 17 16 16 11 8 13 19 2 22 16 8 4 13 9 23 27 26 28 26 25 23 21 20 20 19 19 18 18 17 17 15 11 8 8 5 7 10 10 9 10
25 5 8 19 21 7 5 9 6 10 15 17 13 10 1 4 6 5 12 24 12 14 5 14 14 23 28 25 21 18 19 20 21 18 18 17 17 17 17 14 12 7 11 11 11 11 12 11 9
11 4 14 11 11 7 11 20 6 11 16 22 16 12 7 8 7 10 4 16 14 19 35 31 27 22 25 27 22 21 15 20 17 15 14 12 10 10 15 17 14 12 15 16 17 16 16 17 12
5 12 6 5 8 4 10 13 5 13 15 21 26 19 20 20 12 4 3 12 15 20 24 30 28 28 23 24 17 25 21 20 21 19 16 14 14 13 13 13 16 20 19 19 19 20 22 22 23
4 5 3 6 5 7 6 4 4 7 11 13 24 25 26 24 20 5 3 18 25 23 21 36 38 35 32 33 23 21 26 25 25 22 21 17 16 19 19 17 18 18 22 23 24 21 22 24 16
2 6 8 5 8 6 8 6 7 8 15 12 21 24 21 20 18 13 2 8 26 30 24 25 48 54 42 25 26 31 30 31 30 26 25 22 24 25 25 23 21 20 20 24 27 21 20 15 13
12 6 5 4 6 12 7 10 7 7 8 13 21 24 26 27 24 11 9 5 18 27 26 29 35 52 52 37 34 32 38 41 38 34 31 31 29 26 26 24 21 21 22 22 22 20 17 15 14
16 13 4 4 5 1 2 6 2 6 13 24 29 32 31 29 33 15 9 5 15 26 28 33 33 46 44 36 31 29 29 34 38 33 33 35 30 27 25 24 22 22 19 22 23 21 22 22 19
16 8 8 4 5 4 2 7 6 6 17 19 25 28 30 26 29 26 15 10 12 23 29 36 36 32 42 30 37 35 32 32 30 29 28 31 33 29 24 25 22 21 19 20 24 23 24 25 23
9 8 8 8 5 4 5 1 7 4 17 21 20 35 34 29 29 26 22 9 19 22 38 31 31 24 34 35 30 29 32 34 32 29 27 29 29 28 25 25 23 24 24 23 25 26 25 27 23
6 6 4 2 5 5 6 4 16 13 24 18 11 26 30 30 32 25 27 14 11 12 19 26 33 30 26 25 28 32 36 35 29 23 22 23 24 28 27 25 25 25 24 23 26 26 29 29 27
14 7 2 1 2 12 8 6 20 9 19 22 17 23 30 32 26 22 16 12 16 19 20 21 28 27 23 19 23 22 22 21 24 24 23 18 23 24 26 26 25 26 25 27 29 28 28 26 24
13 10 5 5 5 6 6 12 8 12 28 24 27 26 29 29 20 24 16 24 23 22 20 19 18 16 12 10 11 13 12 16 16 19 18 17 16 23 24 26 26 30 29 29 29 27 25 25 23
7 7 8 5 0 4 5 9 15 17 14 6 15 24 24 19 21 29 28 22 23 22 19 17 16 14 13 11 11 11 10 11 11 15 18 24 20 23 29 29 28 23 21 22 22 23 23 23 22
9 8 4 3 6 5 2 5 2 16 11 8 10 16 22 28 33 27 23 21 20 19 19 15 11 11 11 7 4 3 5 4 3 4 8 5 5 9 16 17 21 22 22 22 20 20 21 22 24
5 6 5 6 5 5 1 6 4 13 25 15 10 28 33 35 35 36 32 27 23 22 20 19 16 14 11 9 6 3 3 3 3 5 4 6 10 14 10 11 15 24 25 24 22 21 23 25 26
10 9 7 5 3 2 4 6 14 22 6 16 22 34 40 37 38 35 32 29 26 24 20 17 14 11 9 4 1 2 5 8 9 10 11 12 12 12 14 18 17 15 17 21 23 26 25 24 27
Wind_Direction
277 283 294 319 42 58 265 250 231 15 336 293 146 146 162 166 234 225 171 173 174 172 170 170 171 168 166 163 158 151 146 140 137 143 144 145 144 144 145 143 139 132 129 130 130 132 134 133 126
276 293 298 212 107 109 267 227 263 191 151 108 152 108 160 201 186 196 163 178 178 177 173 172 175 174 170 167 164 159 155 150 146 149 149 148 146 145 146 144 139 135 135 134 133 138 142 142 134
271 292 258 146 164 194 238 228 275 313 303 248 132 187 174 203 200 185 175 173 178 178 174 177 179 178 173 172 169 166 163 160 153 154 154 152 149 151 149 143 139 141 141 142 139 142 147 146 141
268 206 219 141 224 256 236 329 310 314 311 335 150 176 197 181 183 186 173 170 172 177 178 179 182 181 178 176 175 172 169 167 162 158 161 158 158 157 150 145 144 149 150 147 142 142 146 145 142
216 226 196 200 245 254 268 283 287 292 288 278 156 179 240 185 188 193 182 181 175 176 181 180 183 183 182 180 179 177 175 175 170 165 166 166 165 163 156 153 152 155 157 150 144 141 142 142 143
208 202 128 221 246 261 280 290 294 291 287 210 215 159 188 198 191 179 172 177 183 182 181 180 183 185 183 184 180 181 179 181 179 174 170 171 170 168 166 161 164 162 162 155 147 143 140 143 148
169 112 208 218 243 271 274 301 299 299 330 332 134 120 225 207 185 180 174 180 183 184 182 181 183 186 186 184 182 184 184 184 185 182 176 175 176 175 174 171 172 170 167 166 164 161 156 156 154
208 118 218 221 229 273 272 288 279 359 51 2 235 226 180 193 190 188 187 182 184 190 186 183 184 186 186 184 185 186 187 187 190 188 183 182 183 184 181 182 180 178 176 181 191 196 197 198 186
212 182 219 219 217 248 302 330 299 306 291 47 9 40 276 188 188 179 185 183 189 191 191 188 188 187 187 187 186 188 189 191 192 193 190 189 190 189 189 189 190 194 193 198 214 227 235 248 261
188 206 228 202 226 257 278 325 347 289 288 47 29 58 107 168 175 186 189 191 189 192 194 194 192 191 188 190 191 192 192 193 195 195 194 192 194 194 195 197 200 204 213 226 237 250 261 272 282
212 230 213 207 242 262 274 305 343 275 45 86 62 35 165 157 176 192 201 200 197 193 199 200 197 196 193 195 197 196 197 196 197 197 196 195 197 198 199 204 207 214 227 249 260 268 280 285 278
247 248 237 270 270 268 253 262 279 342 76 84 81 62 97 221 220 25 64 179 197 198 200 207 204 202 202 203 204 203 201 200 202 200 199 201 200 202 203 209 212 218 208 178 273 271 285 260 262
243 265 258 243 258 265 278 252 260 265 263 21 62 62 54 225 287 279 25 65 207 193 199 203 210 213 212 208 208 210 210 207 206 206 206 205 208 209 208 206 203 210 198 182 304 262 264 260 259
233 227 251 253 250 262 242 241 212 254 267 310 12 45 71 81 82 263 244 173 117 167 192 200 206 220 223 219 214 213 215 215 215 213 214 213 216 218 222 222 213 214 214 232 236 259 254 272 257
235 250 221 236 244 212 170 272 223 247 287 304 343 356 79 136 144 289 276 239 256 227 126 214 215 219 224 226 217 221 229 227 224 221 222 222 224 226 230 231 227 235 243 237 244 251 250 244 253
204 190 236 233 229 219 190 257 220 263 295 294 304 331 324 307 307 344 248 203 214 245 227 290 288 235 226 218 232 238 241 230 221 209 208 213 218 219 232 241 237 232 245 245 246 253 256 246 258
229 224 212 222 221 151 189 250 236 236 271 282 286 294 305 300 296 11 275 228 210 185 206 228 182 206 231 215 232 239 240 234 231 230 229 224 231 233 243 247 241 229 236 243 249 251 249 262 269
233 165 196 206 256 192 209 227 272 246 268 267 286 292 291 298 294 254 322 228 218 212 198 208 195 193 205 210 227 234 245 245 239 243 238 238 243 253 241 239 243 246 241 239 245 250 248 257 241
266 199 202 208 227 167 208 206 230 249 270 266 274 282 278 286 295 268 316 224 222 210 216 209 192 195 195 194 210 230 234 237 234 236 243 245 246 250 247 240 255 252 257 252 250 256 254 244 241
240 227 219 255 190 198 221 237 228 231 242 250 269 264 270 271 266 263 262 281 219 215 223 195 195 196 196 200 211 212 234 234 241 234 235 239 244 246 249 250 248 263 262 254 247 245 239 241 241
218 219 177 179 173 267 105 294 271 270 255 258 257 259 264 267 270 248 224 219 197 207 196 183 188 189 191 213 213 212 239 246 240 239 238 235 240 247 254 253 252 251 263 243 235 244 237 246 243
215 184 208 209 147 197 97 263 282 263 259 252 246 249 249 249 248 263 229 234 219 221 204 192 199 202 204 213 203 208 224 236 240 234 231 233 239 246 251 253 253 255 266 244 232 234 249 245 244
219 188 194 218 189 138 161 98 247 298 271 249 246 240 240 246 244 254 239 258 261 225 203 202 193 196 211 218 221 226 229 239 253 245 241 247 247 246 251 252 255 257 263 258 241 236 241 246 252
179 165 180 195 185 240 178 175 272 257 241 258 219 227 230 240 240 246 236 264 220 185 180 199 203 210 207 217 227 235 232 230 238 241 241 245 246 244 249 246 250 258 259 260 242 249 244 250 258
183 141 225 224 210 236 124 228 238 258 244 232 237 223 226 227 232 217 235 236 141 181 183 192 200 202 201 206 224 227 226 233 241 248 246 245 244 241 241 245 249 252 262 262 256 247 245 248 250
196 166 146 168 206 247 139 251 244 238 248 254 235 214 196 206 219 201 163 143 137 134 142 152 169 172 176 183 213 226 236 250 252 250 257 263 254 246 249 249 255 261 263 255 252 248 243 241 246
189 168 181 135 285 185 219 272 274 254 252 200 155 171 182 180 179 147 136 128 118 123 132 144 153 153 171 187 206 214 234 254 260 267 261 253 243 244 248 251 255 253 256 262 257 247 245 246 251
159 167 113 26 161 239 287 314 301 354 258 143 128 151 124 144 149 138 129 122 111 112 121 127 127 116 100 108 111 147 146 187 203 209 261 242 251 267 259 252 239 243 246 247 254 255 258 263 264
144 171 72 117 148 174 58 271 259 325 322 150 138 126 128 129 128 125 120 116 118 114 111 109 111 111 104 95 92 71 64 49 4 342 316 292 272 272 287 285 270 252 246 250 253 257 264 266 270
177 177 142 128 211 118 138 273 357 332 280 131 130 132 136 134 129 124 122 122 121 118 114 103 97 100 96 96 111 319 323 325 329 327 321 317 313 299 282 273 274 274 272 257 266 261 263 267 265